Location: Allie Creek
(37.5926°N, 89.8526°W)
Time: 09:49:56
(UTC+00:00)

NOSS 3-1 (A) - Pass Details

Date: 26 September 2023
Orbit: 677 x 1534 km, 63.4° (Epoch: 03 November)

Event Time Altitude Azimuth Distance (km) Brightness Sun altitude
Rises 11:19:10 0° 325° (NW) 4,011 6.4 -7.0°
Reaches altitude 10° 11:21:42 10° 325° (NW) 3,158 5.9 -6.5°
Maximum altitude 11:29:31 79° 241° (WSW) 1,405 4.3 -5.0°
Drops below altitude 10° 11:38:40 10° 156° (SSE) 3,650 6.8 -3.2°
Sets 11:41:47 0° 155° (SSE) 4,663 7.4 -2.6°
